Weather History for KBRO - December, 2011

Change the Weather History Date:

Thursday, December 8, 2011

  Actual Average Record
Temperature  
Mean Temperature 54 °F 63 °F  
Max Temperature 69 °F 73 °F 93 °F (1885)
Min Temperature 38 °F 54 °F 34 °F (1882)
Degree Days  
Heating Degree Days 11 4  
Month to date heating degree days 50 32  
Since 1 July heating degree days 89 86  
Cooling Degree Days 0 3  
Month to date cooling degree days 33 26  
Year to date cooling degree days 4574 3971  
Growing Degree Days 4 (Base 50)    
Moisture  
Dew Point 44 °F    
Average Humidity 67    
Maximum Humidity 86    
Minimum Humidity 48    
Precipitation  
Precipitation 0.00 in 0.05 in 2.14 in (1964)
Month to date precipitation 0.16 0.34  
Year to date precipitation 16.55 26.63  
Sea Level Pressure  
Sea Level Pressure 30.19 in    
Wind  
Wind Speed 5 mph (ENE)    
Max Wind Speed 15 mph    
Max Gust Speed 22 mph    
Visibility 10 miles    
Events      
T = Trace of Precipitation, MM = Missing Value Source: NWS Daily Summary

Daily Weather History Graph

Daily Weather History Graph

Search for Another Location

Airport or City:

Trip Planner

Search our weather history database for the weather conditions in past years. The results will help you decide how hot, cold, wet, or windy it might be!

Date:

Astronomy

Dec. 08, 2011 Rise Set
Actual Time 7:04 AM CST 5:38 PM CST
Civil Twilight 6:39 AM CST 6:03 PM CST
Nautical Twilight 6:10 AM CST 6:32 PM CST
Astronomical Twilight 5:42 AM CST 7:00 PM CST
Moon 4:17 PM CST (12/8) 5:20 AM CST (12/8)
Length of Visible Light 11h 24m
Length of Day
10h 34m
Waxing Gibbous, 97% of the Moon is Illuminated
Dec 8
Waxing Gibbous
Dec 10
Full
Dec 17
Last Quarter
Dec 24
New
Jan 1
First Quarter

Hourly Weather History & Observations

Time (CST) Temp. Windchill Dew Point Humidity Pressure Visibility Wind Dir Wind Speed Gust Speed Precip Events Conditions
12:53 AM 42.1 °F 38.4 °F 32.0 °F 67% 30.31 in 10.0 mi NNW 5.8 mph - N/A   Clear
1:53 AM 42.1 °F - 30.9 °F 65% 30.29 in 10.0 mi Calm Calm - N/A   Clear
2:53 AM 41.0 °F - 30.9 °F 67% 30.27 in 10.0 mi Calm Calm - N/A   Clear
3:53 AM 39.0 °F - 30.9 °F 73% 30.26 in 10.0 mi Calm Calm - N/A   Clear
4:53 AM 43.0 °F 40.3 °F 33.1 °F 68% 30.25 in 10.0 mi North 4.6 mph - N/A   Clear
5:53 AM 44.1 °F 40.8 °F 33.1 °F 65% 30.25 in 10.0 mi North 5.8 mph - N/A   Clear
6:53 AM 41.0 °F 39.0 °F 33.1 °F 73% 30.23 in 10.0 mi NNE 3.5 mph - N/A   Clear
7:53 AM 46.9 °F - 37.0 °F 68% 30.27 in 10.0 mi North 6.9 mph - N/A   Clear
8:53 AM 54.0 °F - 39.9 °F 59% 30.28 in 10.0 mi NNE 4.6 mph - N/A   Scattered Clouds
9:53 AM 62.1 °F - 43.0 °F 50% 30.28 in 10.0 mi North 4.6 mph - N/A   Overcast
10:53 AM 64.9 °F - 46.9 °F 52% 30.26 in 10.0 mi ENE 5.8 mph - N/A   Overcast
11:53 AM 66.9 °F - 48.9 °F 52% 30.22 in 10.0 mi ENE 6.9 mph - N/A   Overcast
12:53 PM 68.0 °F - 48.9 °F 50% 30.17 in 10.0 mi SE 10.4 mph - N/A   Overcast
1:53 PM 68.0 °F - 50.0 °F 52% 30.14 in 10.0 mi ESE 10.4 mph - N/A   Overcast
2:53 PM 68.0 °F - 51.1 °F 55% 30.11 in 10.0 mi SE 15.0 mph 21.9 mph N/A   Overcast
3:53 PM 66.9 °F - 51.1 °F 57% 30.11 in 10.0 mi SE 11.5 mph - N/A   Overcast
4:53 PM 66.9 °F - 52.0 °F 59% 30.11 in 10.0 mi SE 5.8 mph - N/A   Overcast
5:53 PM 66.0 °F - 53.1 °F 63% 30.10 in 10.0 mi SE 5.8 mph - N/A   Overcast
6:53 PM 64.9 °F - 52.0 °F 63% 30.11 in 10.0 mi SE 4.6 mph - N/A   Overcast
7:53 PM 63.0 °F - 52.0 °F 67% 30.12 in 10.0 mi SE 4.6 mph - N/A   Mostly Cloudy
8:53 PM 60.1 °F - 52.0 °F 75% 30.12 in 10.0 mi Calm Calm - N/A   Clear
9:53 PM 57.0 °F - 51.1 °F 81% 30.12 in 10.0 mi Calm Calm - N/A   Clear
10:53 PM 55.0 °F - 51.1 °F 86% 30.13 in 10.0 mi Calm Calm - N/A   Clear
11:53 PM 55.0 °F - 51.1 °F 86% 30.12 in 10.0 mi Calm Calm - N/A   Clear